Погода в Консепсьон-дель-Уругвае

Аргентина     32°28′49″S   58°14′21″W
темп.,
°C
ветер,
м/с
пор.,
м/с
влажн.,
%
обл.,
%
осадки,
мм/ч
давл.,
гПа
погр.,
м
13 апреля, вт
вт1300:00+14всв22750 0.0 102110
03:00+13св11790 0.0 102110
06:00+12всв11810 0.0 102111
09:00+15всв22740 0.0 1023150
12:00+20в23570 0.0 1022754
15:00+23всв23500 0.0 10201142
18:00+20вюв11640 0.0 101911
21:00+16вюв34790 0.0 102045
14 апреля, ср
ср1400:00+14в35790 0.0 101971
03:00+13всв33820 0.0 101939
06:00+12в35890 0.0 101879
09:00+16всв47790 0.0 1019237
12:00+22св46640 0.0 1018737
15:00+24св45577 0.0 10141191
18:00+21всв226880 0.0 101421
21:00+20вюв2273100 0.0 101428
15 апреля, чт
чт1500:00+19в3675100 0.0 1015159
03:00+18всв2383100 0.0 101452
06:00+19св238299 0.0 101480
09:00+20всв12795 0.0 1015177
12:00+25св11650 0.0 1015706
15:00+26сз1158100 0.0 10131291
18:00+24юз1169100 0.0 101311
21:00+21ююв3377100 0.0 101334
16 апреля, пт
пт1600:00+19вюв3389100 0.0 101436
03:00+18юв229250 0.0 101315
06:00+18юв12940 0.0 101411
09:00+20юв33860 0.0 1015210
12:00+25юв226912 0.0 1015850
15:00+27ююв235827 0.1 10141453
18:00+24юв34712 0.0 101449
21:00+20юв36800 0.0 1016115
17 апреля, сб
сб1700:00+18вюв37890 0.0 1016131
03:00+17вюв36950 0.0 1016116
06:00+16вюв35952 0.0 101792
09:00+18вюв35870 0.0 1019234
12:00+24вюв44670 0.0 1019841
15:00+25вюв45500 0.0 10171027
18:00+21юв35710 0.0 101785
21:00+18вюв46795 0.0 101894